Left ArrowRight Arrow

44.89941, -97.11507

Hourly Observations for June 16, 2024

Temp ( °F °C ) Dew Point ( °F °C ) Humidity (%) Winds ( mph kmh ) Pressure ( in mb ) Visibility ( mi km ) Precip ( " mm )
12:53 am 00:53 Clear 69 20.6 67 19.4 93 93 SE 9 15 29.57 1001 9 14 0.00 0.00
1:53 am 01:53 Clear 68 20 66 18.9 93 93 SSE 12 19 29.54 1000 8 13 0.00 0.00
2:53 am 02:53 Clear 67 19.4 64 17.8 90 90 SSE 10 17 29.50 999 10 16 0.00 0.00
3:53 am 03:53 Clear 66 18.9 64 17.8 93 93 SSE 13 20 29.49 999 10 16 0.00 0.00
4:53 am 04:53 Clear 66 18.9 64 17.8 93 93 S 10 17 29.51 999 10 16 0.00 0.00
5:53 am 05:53 Sunny 66 18.9 64 17.8 93 93 SSE 12 19 29.49 999 10 16 0.00 0.00
6:53 am 06:53 Sunny 68 20 65 18.3 90 90 S 12 19 29.51 999 10 16 0.00 0.00
7:53 am 07:53 Sunny 71 21.7 66 18.9 84 84 S 12 19 29.51 999 10 16 0.00 0.00
8:53 am 08:53 Sunny 73 22.8 67 19.4 81 81 S 12 19 29.51 999 10 16 0.00 0.00
9:53 am 09:53 Sunny 77 25 67 19.4 71 71 SSW 13 20 29.53 1000 10 16 0.00 0.00
10:53 am 10:53 Sunny 79 26.1 66 18.9 65 65 WSW 15 24 29.56 1001 10 16 0.00 0.00
11:53 am 11:53 Sunny 79 26.1 64 17.8 60 60 NW 13 20 29.57 1002 10 16 0.00 0.00
12:53 pm 12:53 Mostly Cloudy 81 27.2 67 19.4 62 62 NNW 13 20 29.60 1002 10 16 0.00 0.00
1:53 pm 13:53 Cloudy 79 26.1 65 18.3 62 62 NNW 14 22 29.62 1003 10 16 0.00 0.00
2:53 pm 14:53 Cloudy 77 25 62 16.7 60 60 NW 14 22 29.66 1004 10 16 0.00 0.00
3:53 pm 15:53 Sunny 79 26.1 60 15.6 52 52 N 14 22 29.64 1004 10 16 0.00 0.00
4:53 pm 16:53 Partly Cloudy with Light Rain 73 22.8 57 13.9 57 57 N 9 15 29.67 1005 10 16 0.01 0.13
5:53 pm 17:53 Sunny 74 23.3 49 9.4 41 41 NW 12 19 29.70 1006 10 16 0.01 0.13
6:53 pm 18:53 Sunny 73 22.8 47 8.3 39 39 N 9 15 29.69 1005 10 16 0.00 0.00
7:53 pm 19:53 Sunny 69 20.6 47 8.3 45 45 NNW 10 17 29.74 1007 10 16 0.00 0.00
8:53 pm 20:53 Sunny 65 18.3 49 9.4 56 56 NNW 5 7 29.75 1008 10 16 0.00 0.00
9:53 pm 21:53 Partly Cloudy 66 18.9 48 8.9 52 52 Calm 29.78 1008 10 16 0.00 0.00
10:53 pm 22:53 Cloudy 66 18.9 49 9.4 54 54 NNE 3 6 29.79 1009 10 16 0.00 0.00
11:53 pm 23:53 Mostly Cloudy 62 16.7 51 10.6 67 67 NNE 5 7 29.78 1009 10 16 0.00 0.00

Powered by Vaisala Xweather